Regional Weather Roundup
Issued by NWS Goodland, KS

Home | Current Version | Previous Version | Graphics & Text | Print | Product List | Glossary On
Versions: 1 2 3 4 5 6 7 8 9 10 11 12 13 14 15 16 17 18 19 20 21 22 23 24 25 26 27 28 29 30 31 32 33 34 35 36 37 38 39 40 41 42 43 44 45 46 47 48 49 50
000
ASUS43 KGLD 221759
RWRGLD

GOODLAND FORECAST AREA HOURLY WEATHER ROUNDUP
NATIONAL WEATHER SERVICE GOODLAND KS
1200 PM MDT SAT APR 22 2017

...OFFICIAL OBSERVATIONS...

CITY           SKY/WX    TMP DP  RH WIND       PRES   REMARKS
GOODLAND KS    PTSUNNY   51  34  52 N9        30.31S
HILL CITY KS   PTSUNNY   57  34  41 N9        30.30F
IMPERIAL NEB   MOSUNNY   54  32  43 VRB6      30.31F
MCCOOK NEB     MOSUNNY   57  34  41 CALM      30.30F
AKRON CO       CLOUDY    47  30  51 SW6       30.31F
BURLINGTON CO  NOT AVBL
LIMON CO       CLOUDY    44  31  60 CALM      30.31F
$$

...UNOFFICIAL OBSERVATIONS...

CITY           SKY/WX    TMP DP  RH WIND       PRES   REMARKS
LENORA KS        N/A     55  32  41 MISG        N/A
NORTON KS      MOSUNNY   55  30  38 NE7       30.29S
SHARON SPRINGS   N/A     50  39  65 N7          N/A
TRENTON NEB      N/A     53  32  45 CALM        N/A
KIT CARSON CO    N/A     48  35  60 CALM        N/A
YUMA CO        CLOUDY    46  34  61 NW3       30.32S
$$




USA.gov is the U.S. government's official web portal to all federal, state and local government web resources and services.